M I D A S
Marine Information and Data Acquisition System
Tripno 1829 of the Zeeleeuw from 2009-12-18 07:37:33 to 2009-12-18 15:35:12
Back to CruiseResearch ActivitiesStationsMapUnderway DataData graphs

EquipmentUnitsComments
TimeDGPSUTC
LatitudeDGPSDM.mWGS84
LongitudeDGPSDM.mWGS84
SpeedMeteo Stationm/sRelative wind speed
DirectionMeteo StationdegRelative wind direction
TemperatureMeteo Stationdeg CelciusAir temperature
PressureMeteo StationPaAtmospheric pressure
HumidityMeteo Station%Relative humidity
Missing or incorrect values are displayed as -999
Metereological data collected by the RV Zeeleeuw from 2009-12-18 07:40:09 to 2009-12-18 15:38:23
                                                                                    Next 1000 lines
Time Latitude Longitude Speed Direction Temperature Pressure Humidity
2009-12-18 07:40:19 51°13.662 2°55.955 1.7 324 -2.7 101160 35
2009-12-18 07:40:24 51°13.663 2°55.951 0.1 320 -2.7 101160 35
2009-12-18 07:40:29 51°13.665 2°55.947 0.1 18 -2.7 101160 35
2009-12-18 07:40:35 51°13.666 2°55.941 0.1 335 -2.7 101160 35
2009-12-18 07:40:40 51°13.668 2°55.936 0.1 335 -2.7 101170 36
2009-12-18 07:40:46 51°13.669 2°55.928 0.3 317 -2.7 101170 36
2009-12-18 07:40:51 51°13.671 2°55.922 0.2 323 -2.7 101170 35
2009-12-18 07:40:57 51°13.673 2°55.913 0.1 36 -2.7 101170 35
2009-12-18 07:41:03 51°13.674 2°55.905 0.1 19 -2.7 101170 35
2009-12-18 07:41:08 51°13.676 2°55.897 2.3 322 -2.7 101170 35
2009-12-18 07:41:13 51°13.677 2°55.889 1.6 327 -2.7 101170 35
2009-12-18 07:41:18 51°13.679 2°55.881 0.1 332 -2.7 101170 35
2009-12-18 07:41:23 51°13.681 2°55.873 0.1 326 -2.7 101170 35
2009-12-18 07:41:28 51°13.683 2°55.865 -999 33 -2.7 101170 35
2009-12-18 07:41:33 51°13.685 2°55.856 -999 22 -2.7 101170 34
2009-12-18 07:41:38 51°13.687 2°55.848 -999 242 -2.7 101170 34
2009-12-18 07:41:43 51°13.689 2°55.84 -999 22 -2.7 101170 35
2009-12-18 07:41:48 51°13.691 2°55.832 0.1 237 -2.7 101170 35
2009-12-18 07:41:53 51°13.694 2°55.824 0.1 22 -2.7 101170 35
2009-12-18 07:41:58 51°13.696 2°55.816 0.5 30 -2.7 101170 35
2009-12-18 07:42:03 51°13.699 2°55.808 0.2 20 -2.7 101170 35
2009-12-18 07:42:08 51°13.702 2°55.8 0.1 263 -2.7 101170 35
2009-12-18 07:42:13 51°13.705 2°55.792 0.1 16 -2.7 101170 35
2009-12-18 07:42:18 51°13.708 2°55.784 0.1 248 -2.7 101170 35
2009-12-18 07:42:23 51°13.711 2°55.776 0.1 255 -2.7 101170 35
2009-12-18 07:42:28 51°13.715 2°55.769 -999 251 -2.7 101170 35
2009-12-18 07:42:33 51°13.718 2°55.761 -999 260 -2.7 101170 34
2009-12-18 07:42:38 51°13.722 2°55.754 1.3 249 -2.7 101170 34
2009-12-18 07:42:43 51°13.725 2°55.746 1.4 256 -2.7 101170 33
2009-12-18 07:42:47 51°13.728 2°55.741 2.2 249 -2.7 101170 33
2009-12-18 07:42:53 51°13.733 2°55.732 0.8 267 -2.7 101170 35
2009-12-18 07:42:58 51°13.737 2°55.725 1.1 262 -2.7 101170 35
2009-12-18 07:43:03 51°13.741 2°55.719 1.7 259 -2.7 101170 34
2009-12-18 07:43:08 51°13.746 2°55.712 2.2 262 -2.7 101170 34
2009-12-18 07:43:13 51°13.75 2°55.706 2.4 247 -2.7 101170 32
2009-12-18 07:43:18 51°13.755 2°55.7 2.1 250 -2.7 101170 32
2009-12-18 07:43:23 51°13.76 2°55.694 1.8 255 -2.7 101170 33
2009-12-18 07:43:28 51°13.764 2°55.688 0.6 267 -2.7 101170 33
2009-12-18 07:43:33 51°13.77 2°55.682 1.3 24 -2.7 101180 34
2009-12-18 07:43:38 51°13.775 2°55.677 1.1 268 -2.7 101180 34
2009-12-18 07:43:43 51°13.781 2°55.672 1 21 -2.7 101180 32
2009-12-18 07:43:48 51°13.787 2°55.667 2.2 242 -2.7 101180 32
2009-12-18 07:43:53 51°13.793 2°55.663 1.1 258 -2.7 101170 34
2009-12-18 07:43:58 51°13.799 2°55.659 2.2 255 -2.7 101170 34
2009-12-18 07:44:03 51°13.805 2°55.655 1.6 256 -2.7 101170 31
2009-12-18 07:44:08 51°13.811 2°55.652 0.3 35 -2.7 101170 31
2009-12-18 07:44:13 51°13.817 2°55.649 0.2 25 -2.7 101180 36
2009-12-18 07:44:26 51°13.834 2°55.643 2.5 54 -2.7 101180 35
2009-12-18 07:44:31 51°13.84 2°55.64 2.7 334 -2.7 101180 33
2009-12-18 07:44:31 51°13.84 2°55.64 2.7 334 -2.7 101180 33
2009-12-18 07:44:44 51°13.856 2°55.634 4.7 269 -2.7 101170 37
2009-12-18 07:44:49 51°13.862 2°55.632 3.1 37 -2.7 101170 37
2009-12-18 07:44:54 51°13.868 2°55.631 2.9 287 -2.7 101180 36
2009-12-18 07:44:59 51°13.874 2°55.629 4.4 270 -2.7 101180 36
2009-12-18 07:45:04 51°13.879 2°55.628 3.7 279 -2.7 101180 33
2009-12-18 07:45:09 51°13.884 2°55.627 2 259 -2.7 101180 33
2009-12-18 07:45:14 51°13.889 2°55.626 2.7 280 -2.7 101170 34
2009-12-18 07:45:19 51°13.894 2°55.625 1.6 267 -2.7 101170 34
2009-12-18 07:45:24 51°13.899 2°55.624 1.4 289 -2.7 101190 32
2009-12-18 07:45:29 51°13.903 2°55.624 1.6 34 -2.7 101190 32
2009-12-18 07:45:34 51°13.907 2°55.623 0.7 77 -2.7 101180 36
2009-12-18 07:45:39 51°13.911 2°55.623 1.2 37 -2.7 101180 36
2009-12-18 07:45:44 51°13.915 2°55.623 2.3 76 -2.7 101180 32
2009-12-18 07:45:49 51°13.919 2°55.624 2 31 -2.7 101180 32
2009-12-18 07:45:54 51°13.923 2°55.624 2.9 284 -2.7 101170 34
2009-12-18 07:45:59 51°13.926 2°55.625 2.2 270 -2.7 101170 34
2009-12-18 07:46:03 51°13.929 2°55.625 3.2 79 -2.7 101180 36
2009-12-18 07:46:08 51°13.932 2°55.626 3.7 31 -2.7 101180 36
2009-12-18 07:46:13 51°13.934 2°55.626 2.4 278 -2.7 101170 33
2009-12-18 07:46:18 51°13.937 2°55.627 3 37 -2.7 101170 33
2009-12-18 07:46:23 51°13.939 2°55.628 2.4 290 -2.7 101180 34
2009-12-18 07:46:27 51°13.941 2°55.628 5.2 36 -2.7 101180 34
2009-12-18 07:46:33 51°13.943 2°55.629 4 75 -2.7 101180 36
2009-12-18 07:46:38 51°13.944 2°55.629 3.7 30 -2.7 101180 36
2009-12-18 07:46:42 51°13.944 2°55.629 4.2 78 -2.7 101180 37
2009-12-18 07:46:47 51°13.945 2°55.628 4.5 36 -2.7 101180 37
2009-12-18 07:46:52 51°13.946 2°55.628 5 73 -2.7 101180 36
2009-12-18 07:46:57 51°13.946 2°55.627 3 36 -2.7 101180 36
2009-12-18 07:47:02 51°13.946 2°55.626 3.4 74 -2.7 101180 33
2009-12-18 07:47:07 51°13.946 2°55.625 3.7 37 -2.7 101180 33
2009-12-18 07:47:11 51°13.947 2°55.623 2.3 79 -2.7 101180 36
2009-12-18 07:47:16 51°13.946 2°55.621 2 36 -2.7 101180 36
2009-12-18 07:47:21 51°13.946 2°55.619 1.5 80 -2.7 101170 33
2009-12-18 07:47:26 51°13.946 2°55.616 0.5 32 -2.7 101170 33
2009-12-18 07:47:31 51°13.946 2°55.613 0.1 72 -2.7 101180 36
2009-12-18 07:47:36 51°13.947 2°55.609 0.4 43 -2.7 101180 36
2009-12-18 07:47:42 51°13.947 2°55.605 0.1 76 -2.7 101180 34
2009-12-18 07:47:47 51°13.948 2°55.601 0.1 33 -2.7 101180 34
2009-12-18 07:47:52 51°13.949 2°55.597 0.1 39 -2.7 101180 34
2009-12-18 07:47:57 51°13.95 2°55.593 1.1 38 -2.7 101180 34
2009-12-18 07:48:02 51°13.951 2°55.589 1.4 30 -2.7 101170 33
2009-12-18 07:48:07 51°13.953 2°55.584 2.4 24 -2.7 101170 33
2009-12-18 07:48:12 51°13.956 2°55.579 1.8 14 -2.7 101170 34
2009-12-18 07:48:17 51°13.959 2°55.574 0.7 16 -2.7 101170 34
2009-12-18 07:48:23 51°13.963 2°55.568 1.5 14 -2.7 101170 36
2009-12-18 07:48:29 51°13.968 2°55.562 2.3 25 -2.7 101170 33
2009-12-18 07:48:34 51°13.972 2°55.556 2.1 14 -2.7 101170 33
2009-12-18 07:48:38 51°13.976 2°55.552 0.5 22 -2.7 101170 33
2009-12-18 07:48:43 51°13.982 2°55.546 1.2 358 -2.7 101170 37
2009-12-18 07:48:48 51°13.988 2°55.539 1.4 358 -2.7 101170 37
2009-12-18 07:48:53 51°13.995 2°55.533 1.9 358 -2.7 101170 34
2009-12-18 07:48:58 51°14.003 2°55.526 3.5 360 -2.7 101170 34
2009-12-18 07:49:03 51°14.011 2°55.519 4.3 281 -2.7 101170 34
2009-12-18 07:49:08 51°14.02 2°55.511 2.9 4 -2.7 101170 34
2009-12-18 07:49:13 51°14.029 2°55.503 4.2 4 -2.7 101170 33
2009-12-18 07:49:18 51°14.039 2°55.494 3.7 356 -2.7 101170 33
2009-12-18 07:49:23 51°14.049 2°55.486 3.9 348 -2.7 101170 33
2009-12-18 07:49:28 51°14.059 2°55.477 4 356 -2.7 101170 33
2009-12-18 07:49:33 51°14.07 2°55.468 4.2 7 -2.7 101170 33
2009-12-18 07:49:39 51°14.083 2°55.456 3.6 6 -2.7 101170 33
2009-12-18 07:49:43 51°14.091 2°55.448 3.7 -999 -2.7 101160 37
2009-12-18 07:49:49 51°14.105 2°55.437 4.5 360 -2.7 101160 37
2009-12-18 07:49:54 51°14.116 2°55.428 3.6 348 -2.7 101160 34
2009-12-18 07:49:58 51°14.126 2°55.42 4.8 359 -2.7 101160 34
2009-12-18 07:50:03 51°14.137 2°55.41 4.8 351 -2.7 101160 35
2009-12-18 07:50:09 51°14.151 2°55.398 4.1 353 -2.7 101160 35
2009-12-18 07:50:14 51°14.162 2°55.388 4.5 358 -2.7 101160 33
2009-12-18 07:50:18 51°14.172 2°55.38 4.3 355 -2.7 101160 33
2009-12-18 07:50:23 51°14.183 2°55.369 5.2 360 -2.7 101160 33
2009-12-18 07:50:29 51°14.197 2°55.356 3.9 360 -2.7 101160 33
2009-12-18 07:50:33 51°14.205 2°55.347 4.1 356 -2.7 101170 34
2009-12-18 07:50:38 51°14.216 2°55.335 4.2 7 -2.7 101170 34
2009-12-18 07:50:43 51°14.227 2°55.322 3.7 5 -2.7 101160 32
2009-12-18 07:50:48 51°14.237 2°55.308 4.4 355 -2.7 101160 32
2009-12-18 07:50:54 51°14.248 2°55.292 2.5 357 -2.7 101160 33
2009-12-18 07:50:58 51°14.255 2°55.279 2.7 15 -2.7 101160 33
2009-12-18 07:51:03 51°14.264 2°55.263 3.4 17 -2.7 101170 36
2009-12-18 07:51:08 51°14.272 2°55.247 4.6 13 -2.7 101170 36
2009-12-18 07:51:13 51°14.281 2°55.23 4.8 8 -2.7 101160 36
2009-12-18 07:51:18 51°14.289 2°55.213 5.7 13 -2.7 101160 36
2009-12-18 07:51:23 51°14.298 2°55.196 4.8 11 -2.7 101170 33
2009-12-18 07:51:27 51°14.304 2°55.181 4.4 5 -2.7 101170 33
2009-12-18 07:51:32 51°14.313 2°55.163 4.6 8 -2.7 101170 35
2009-12-18 07:51:38 51°14.322 2°55.14 4 9 -2.7 101170 35
2009-12-18 07:51:42 51°14.329 2°55.125 4.2 8 -2.6 101160 35
2009-12-18 07:51:47 51°14.337 2°55.106 5.8 11 -2.6 101160 35
2009-12-18 07:51:52 51°14.345 2°55.086 4.4 13 -2.6 101170 33
2009-12-18 07:51:57 51°14.353 2°55.065 4.7 12 -2.6 101170 33
2009-12-18 07:52:02 51°14.361 2°55.045 4.7 9 -2.6 101160 33
2009-12-18 07:52:07 51°14.369 2°55.025 5.6 12 -2.6 101160 33
2009-12-18 07:52:12 51°14.377 2°55.005 6.5 8 -2.6 101160 33
2009-12-18 07:52:17 51°14.387 2°54.987 7.1 10 -2.6 101160 33
2009-12-18 07:52:22 51°14.397 2°54.969 5 3 -2.5 101170 34
2009-12-18 07:52:27 51°14.409 2°54.954 5.4 6 -2.5 101170 34
2009-12-18 07:52:31 51°14.418 2°54.942 6 4 -2.5 101170 34
2009-12-18 07:52:36 51°14.43 2°54.93 8.6 -999 -2.5 101170 34
2009-12-18 07:52:41 51°14.443 2°54.918 8.5 1 -2.5 101160 34
2009-12-18 07:52:46 51°14.457 2°54.909 8.6 360 -2.5 101160 34
2009-12-18 07:52:51 51°14.47 2°54.9 8.9 357 -2.5 101160 34
2009-12-18 07:52:56 51°14.484 2°54.892 9.8 355 -2.5 101160 34
2009-12-18 07:53:01 51°14.498 2°54.885 9 357 -2.4 101160 35
2009-12-18 07:53:06 51°14.511 2°54.878 10 355 -2.4 101160 35
2009-12-18 07:53:11 51°14.524 2°54.871 10 358 -2.4 101160 36
2009-12-18 07:53:16 51°14.538 2°54.865 8.7 358 -2.4 101160 36
2009-12-18 07:53:20 51°14.549 2°54.859 9.7 355 -2.3 101150 35
2009-12-18 07:53:26 51°14.566 2°54.852 10.1 357 -2.3 101150 35
2009-12-18 07:53:30 51°14.577 2°54.847 9.3 356 -2.2 101140 37
2009-12-18 07:53:35 51°14.59 2°54.843 10.9 357 -2.2 101140 37
2009-12-18 07:53:40 51°14.604 2°54.837 9.7 359 -2.2 101140 36
2009-12-18 07:53:45 51°14.618 2°54.833 10.1 358 -2.2 101140 36
2009-12-18 07:53:50 51°14.632 2°54.828 11.1 354 -2.2 101160 36
2009-12-18 07:53:55 51°14.646 2°54.824 10.6 357 -2.2 101160 36
2009-12-18 07:54:00 51°14.66 2°54.819 12.1 359 -2.2 101140 36
2009-12-18 07:54:05 51°14.674 2°54.816 12.5 357 -2.2 101140 36
2009-12-18 07:54:10 51°14.688 2°54.812 10.2 360 -2.1 101150 36
2009-12-18 07:54:15 51°14.702 2°54.809 10.9 355 -2.1 101150 36
2009-12-18 07:54:19 51°14.713 2°54.806 10.2 357 -2.1 101150 36
2009-12-18 07:54:25 51°14.73 2°54.802 10.7 354 -2.1 101150 36
2009-12-18 07:54:30 51°14.744 2°54.798 11.1 355 -2.1 101130 35
2009-12-18 07:54:35 51°14.758 2°54.794 10.7 354 -2.1 101130 35
2009-12-18 07:54:40 51°14.772 2°54.79 11.3 356 -2 101150 37
2009-12-18 07:54:45 51°14.786 2°54.787 11.1 355 -2 101150 37
2009-12-18 07:54:50 51°14.801 2°54.784 12 358 -1.9 101140 35
2009-12-18 07:54:55 51°14.815 2°54.78 12.9 356 -1.9 101140 35
2009-12-18 07:54:59 51°14.826 2°54.777 12.6 357 -1.9 101130 37
2009-12-18 07:55:05 51°14.844 2°54.774 12.9 356 -1.9 101130 37
2009-12-18 07:55:10 51°14.858 2°54.771 10.6 356 -1.9 101140 36
2009-12-18 07:55:15 51°14.872 2°54.77 12.8 357 -1.9 101140 36
2009-12-18 07:55:19 51°14.883 2°54.768 11.3 359 -1.9 101140 36
2009-12-18 07:55:25 51°14.9 2°54.766 10.7 360 -1.9 101140 36
2009-12-18 07:55:30 51°14.914 2°54.764 11.8 359 -1.9 101130 35
2009-12-18 07:55:35 51°14.928 2°54.761 11.4 357 -1.9 101130 35
2009-12-18 07:55:40 51°14.942 2°54.759 11.4 357 -1.8 101140 36
2009-12-18 07:55:45 51°14.956 2°54.756 10.4 358 -1.8 101140 36
2009-12-18 07:55:50 51°14.97 2°54.753 12 353 -1.8 101120 37
2009-12-18 07:55:55 51°14.984 2°54.751 11.8 356 -1.8 101120 37
2009-12-18 07:56:00 51°14.998 2°54.747 13.2 359 -1.8 101150 34
2009-12-18 07:56:05 51°15.012 2°54.746 14 355 -1.8 101150 34
2009-12-18 07:56:10 51°15.026 2°54.743 13.3 358 -1.8 101130 35
2009-12-18 07:56:15 51°15.04 2°54.741 12.5 359 -1.8 101130 35
2009-12-18 07:56:20 51°15.054 2°54.738 12 359 -1.7 101140 36
2009-12-18 07:56:25 51°15.068 2°54.735 11.7 360 -1.7 101140 36
2009-12-18 07:56:30 51°15.082 2°54.733 11.4 357 -1.7 101130 36
2009-12-18 07:56:35 51°15.096 2°54.73 11.7 356 -1.7 101130 36
2009-12-18 07:56:40 51°15.11 2°54.726 11.9 358 -1.7 101120 36
2009-12-18 07:56:45 51°15.124 2°54.722 11.5 359 -1.7 101120 36
2009-12-18 07:56:50 51°15.138 2°54.716 11.8 358 -1.7 101130 36
2009-12-18 07:56:55 51°15.151 2°54.711 12.5 359 -1.7 101130 36
2009-12-18 07:56:59 51°15.162 2°54.708 12 360 -1.7 101130 37
2009-12-18 07:57:05 51°15.178 2°54.701 11 -999 -1.7 101130 37
2009-12-18 07:57:10 51°15.192 2°54.694 11.3 3 -1.6 101140 35
2009-12-18 07:57:15 51°15.206 2°54.687 9.1 5 -1.6 101140 35
2009-12-18 07:57:19 51°15.217 2°54.682 9.5 6 -1.6 101140 36
2009-12-18 07:57:25 51°15.233 2°54.674 9.4 5 -1.6 101140 36
2009-12-18 07:57:30 51°15.247 2°54.667 9.7 1 -1.6 101130 36
2009-12-18 07:57:35 51°15.261 2°54.659 9.4 3 -1.6 101130 36
2009-12-18 07:57:39 51°15.272 2°54.653 9 3 -1.6 101120 37
2009-12-18 07:57:45 51°15.288 2°54.643 8.4 1 -1.6 101120 37
2009-12-18 07:57:50 51°15.302 2°54.636 11.3 1 -1.6 101130 36
2009-12-18 07:57:55 51°15.315 2°54.627 9.1 4 -1.6 101130 36
2009-12-18 07:57:59 51°15.327 2°54.621 11.8 1 -1.5 101150 36
2009-12-18 07:58:05 51°15.343 2°54.61 10.6 3 -1.5 101150 36
2009-12-18 07:58:10 51°15.357 2°54.602 11.1 2 -1.5 101160 37
2009-12-18 07:58:15 51°15.371 2°54.594 9.9 6 -1.5 101160 37
2009-12-18 07:58:20 51°15.384 2°54.586 9.9 1 -1.5 101140 37
2009-12-18 07:58:25 51°15.398 2°54.578 9.5 6 -1.5 101140 37
2009-12-18 07:58:30 51°15.411 2°54.57 9.7 5 -1.5 101140 35
2009-12-18 07:58:35 51°15.425 2°54.561 9.6 -999 -1.5 101140 35
2009-12-18 07:58:40 51°15.438 2°54.553 9.6 5 -1.5 101140 35
2009-12-18 07:58:45 51°15.451 2°54.544 11.3 -999 -1.5 101140 35
2009-12-18 07:58:50 51°15.465 2°54.536 9.8 358 -1.5 101140 36
2009-12-18 07:58:55 51°15.478 2°54.528 14.4 358 -1.5 101140 36
2009-12-18 07:58:59 51°15.489 2°54.522 9.7 3 -1.4 101150 37
2009-12-18 07:59:05 51°15.505 2°54.514 9.6 4 -1.4 101150 37
2009-12-18 07:59:10 51°15.518 2°54.508 10.2 1 -1.4 101150 36
2009-12-18 07:59:15 51°15.532 2°54.502 11.1 1 -1.4 101150 36
2009-12-18 07:59:19 51°15.542 2°54.497 10.1 6 -1.4 101150 35
2009-12-18 07:59:25 51°15.558 2°54.489 12.4 3 -1.4 101150 35
2009-12-18 07:59:30 51°15.572 2°54.483 10.3 3 -1.4 101140 36
2009-12-18 07:59:35 51°15.585 2°54.478 12.1 359 -1.4 101140 36
2009-12-18 07:59:39 51°15.596 2°54.473 10.2 1 -1.4 101150 37
2009-12-18 07:59:45 51°15.612 2°54.466 11.8 2 -1.4 101150 37
2009-12-18 07:59:50 51°15.626 2°54.46 10.1 6 -1.3 101130 37
2009-12-18 07:59:55 51°15.64 2°54.455 10.7 6 -1.3 101130 37
2009-12-18 07:59:59 51°15.651 2°54.45 10 2 -1.3 101140 35
2009-12-18 08:00:05 51°15.668 2°54.444 6.3 4 -1.3 101140 35
2009-12-18 08:00:10 51°15.681 2°54.438 12.5 360 -1.3 101130 35
2009-12-18 08:00:15 51°15.695 2°54.432 14 359 -1.3 101130 35
2009-12-18 08:00:19 51°15.707 2°54.428 12.9 359 -1.3 101140 35
2009-12-18 08:00:25 51°15.723 2°54.42 11.9 3 -1.3 101140 35
2009-12-18 08:00:30 51°15.737 2°54.414 12.2 3 -1.3 101150 36
2009-12-18 08:00:35 51°15.751 2°54.409 13.3 359 -1.3 101150 36
2009-12-18 08:00:39 51°15.762 2°54.404 11 357 -1.3 101150 35
2009-12-18 08:00:45 51°15.779 2°54.398 11.1 4 -1.3 101150 35
2009-12-18 08:00:50 51°15.793 2°54.393 9.2 1 -1.2 101150 35
2009-12-18 08:00:55 51°15.807 2°54.387 11.8 1 -1.2 101150 35
2009-12-18 08:00:59 51°15.818 2°54.383 11.1 6 -1.2 101150 36
2009-12-18 08:01:05 51°15.835 2°54.377 10.7 6 -1.2 101150 36
2009-12-18 08:01:10 51°15.849 2°54.371 12.5 6 -1.2 101130 36
2009-12-18 08:01:15 51°15.863 2°54.366 11.2 4 -1.2 101130 36
2009-12-18 08:01:19 51°15.874 2°54.362 11.7 7 -1.1 101160 35
2009-12-18 08:01:25 51°15.891 2°54.355 11.5 1 -1.1 101160 35
2009-12-18 08:01:30 51°15.905 2°54.351 7.9 5 -1.1 101150 37
2009-12-18 08:01:35 51°15.919 2°54.345 9.5 2 -1.1 101150 37
2009-12-18 08:01:39 51°15.93 2°54.341 10.2 6 -1.1 101140 37
2009-12-18 08:01:45 51°15.947 2°54.334 11 1 -1.1 101140 37
2009-12-18 08:01:50 51°15.961 2°54.33 12.6 1 -1.1 101140 37
2009-12-18 08:01:55 51°15.975 2°54.325 13 358 -1.1 101140 37
2009-12-18 08:01:59 51°15.987 2°54.32 12.8 359 -1 101160 38
2009-12-18 08:02:05 51°16.004 2°54.314 12.7 2 -1 101160 38
2009-12-18 08:02:10 51°16.018 2°54.309 12 2 -1 101150 36
2009-12-18 08:02:15 51°16.031 2°54.304 12.1 359 -1 101150 36
2009-12-18 08:02:19 51°16.043 2°54.299 13.7 2 -1 101150 37
2009-12-18 08:02:25 51°16.058 2°54.293 10.8 5 -1 101150 37
2009-12-18 08:02:30 51°16.071 2°54.287 9.8 5 -1 101160 36
2009-12-18 08:02:35 51°16.084 2°54.282 11.3 2 -1 101160 36
2009-12-18 08:02:39 51°16.095 2°54.278 10 2 -1 101140 36
2009-12-18 08:02:45 51°16.109 2°54.273 12 2 -1 101140 36
2009-12-18 08:02:50 51°16.12 2°54.268 4.4 4 -1 101140 36
2009-12-18 08:02:55 51°16.13 2°54.264 9.5 5 -1 101140 36
2009-12-18 08:02:59 51°16.138 2°54.261 11.2 7 -0.9 101150 37
2009-12-18 08:03:05 51°16.149 2°54.256 9.1 4 -0.9 101150 37
2009-12-18 08:03:10 51°16.157 2°54.252 9.3 3 -0.9 101150 37
2009-12-18 08:03:15 51°16.165 2°54.248 10.7 5 -0.9 101150 37
2009-12-18 08:03:19 51°16.17 2°54.245 10 5 -0.9 101140 36
2009-12-18 08:03:25 51°16.179 2°54.241 11.6 2 -0.9 101140 36
2009-12-18 08:03:30 51°16.185 2°54.239 12.1 1 -0.9 101170 37
2009-12-18 08:03:35 51°16.19 2°54.238 10.6 2 -0.9 101170 37
2009-12-18 08:03:39 51°16.194 2°54.236 11.6 1 -0.8 101170 36
2009-12-18 08:03:45 51°16.199 2°54.235 11.1 1 -0.8 101170 36
2009-12-18 08:03:50 51°16.203 2°54.234 11.4 359 -0.8 101150 36
2009-12-18 08:03:55 51°16.207 2°54.234 10.4 358 -0.8 101150 36
2009-12-18 08:03:59 51°16.209 2°54.234 12.2 355 -0.8 101170 36
2009-12-18 08:04:05 51°16.213 2°54.233 10.3 356 -0.8 101170 36
2009-12-18 08:04:10 51°16.215 2°54.233 11.2 353 -0.9 101150 35
2009-12-18 08:04:15 51°16.218 2°54.233 11.5 356 -0.9 101150 35
2009-12-18 08:04:19 51°16.22 2°54.233 12.5 280 -0.9 101170 36
2009-12-18 08:04:25 51°16.222 2°54.234 11.2 350 -0.9 101170 36
2009-12-18 08:04:30 51°16.224 2°54.234 12 348 -0.9 101170 36
2009-12-18 08:04:35 51°16.225 2°54.236 11.3 340 -0.9 101170 36
2009-12-18 08:04:39 51°16.226 2°54.237 10.4 343 -0.8 101170 37
2009-12-18 08:04:45 51°16.227 2°54.239 10.7 341 -0.8 101170 37
2009-12-18 08:04:50 51°16.227 2°54.24 11.8 288 -0.8 101170 37
2009-12-18 08:04:55 51°16.228 2°54.241 11.5 338 -0.8 101170 37
2009-12-18 08:04:59 51°16.228 2°54.243 11.6 287 -0.8 101170 36
2009-12-18 08:05:05 51°16.228 2°54.244 10.6 331 -0.8 101170 36
2009-12-18 08:05:10 51°16.227 2°54.246 10.3 283 -0.8 101160 37
2009-12-18 08:05:15 51°16.228 2°54.246 9.9 334 -0.8 101160 37
2009-12-18 08:05:19 51°16.227 2°54.246 10.1 286 -0.8 101180 37
2009-12-18 08:05:25 51°16.226 2°54.247 9.5 333 -0.8 101180 37
2009-12-18 08:05:30 51°16.224 2°54.247 10.2 282 -0.8 101190 37
2009-12-18 08:05:35 51°16.224 2°54.246 8.9 330 -0.8 101190 37
2009-12-18 08:05:39 51°16.223 2°54.246 9.6 329 -0.8 101180 36
2009-12-18 08:05:45 51°16.222 2°54.246 10.2 329 -0.8 101180 36
2009-12-18 08:05:50 51°16.221 2°54.245 9.9 286 -0.8 101190 34
2009-12-18 08:05:55 51°16.22 2°54.244 9.1 328 -0.8 101190 34
2009-12-18 08:05:59 51°16.218 2°54.243 9.2 280 -0.8 101190 35
2009-12-18 08:06:05 51°16.217 2°54.242 7.8 334 -0.8 101190 35
2009-12-18 08:06:10 51°16.215 2°54.241 8.3 287 -0.8 101190 35
2009-12-18 08:06:15 51°16.214 2°54.239 8.5 333 -0.8 101190 35
2009-12-18 08:06:19 51°16.213 2°54.238 9.4 282 -0.8 101190 34
2009-12-18 08:06:25 51°16.211 2°54.236 8.1 332 -0.8 101190 34
2009-12-18 08:06:30 51°16.209 2°54.234 9.7 285 -0.8 101210 37
2009-12-18 08:06:35 51°16.207 2°54.232 8.8 331 -0.8 101210 37
2009-12-18 08:06:39 51°16.207 2°54.231 7.6 331 -0.8 101210 34
2009-12-18 08:06:45 51°16.205 2°54.228 8.2 328 -0.8 101210 34
2009-12-18 08:06:50 51°16.203 2°54.226 6.9 288 -0.8 101200 37
2009-12-18 08:06:55 51°16.201 2°54.224 8.1 329 -0.8 101200 37
2009-12-18 08:06:59 51°16.201 2°54.221 6.3 286 -0.8 101210 37
2009-12-18 08:07:05 51°16.198 2°54.218 7.6 323 -0.8 101210 37
2009-12-18 08:07:10 51°16.197 2°54.216 8.3 280 -0.8 101200 35
2009-12-18 08:07:15 51°16.195 2°54.213 8.8 322 -0.8 101200 35
2009-12-18 08:07:19 51°16.194 2°54.211 7.2 285 -0.8 101200 35
2009-12-18 08:07:25 51°16.192 2°54.207 7.8 331 -0.8 101200 35
2009-12-18 08:07:30 51°16.19 2°54.204 7.4 284 -0.8 101190 35
2009-12-18 08:07:35 51°16.189 2°54.201 8.1 329 -0.8 101190 35
2009-12-18 08:07:39 51°16.187 2°54.198 9.4 332 -0.7 101200 36
2009-12-18 08:07:45 51°16.185 2°54.195 9.4 328 -0.7 101200 36
2009-12-18 08:07:50 51°16.183 2°54.191 9.2 285 -0.7 101200 38
2009-12-18 08:07:55 51°16.182 2°54.188 8.8 326 -0.7 101200 38
2009-12-18 08:07:59 51°16.18 2°54.185 7.9 285 -0.6 101200 38
2009-12-18 08:08:05 51°16.178 2°54.18 8.1 320 -0.6 101200 38
2009-12-18 08:08:10 51°16.176 2°54.176 9.5 284 -0.6 101210 37
2009-12-18 08:08:15 51°16.174 2°54.173 9.6 323 -0.6 101210 37
2009-12-18 08:08:19 51°16.173 2°54.169 9.5 282 -0.7 101190 37
2009-12-18 08:08:25 51°16.171 2°54.165 10.5 321 -0.7 101190 37
2009-12-18 08:08:30 51°16.169 2°54.16 10.8 283 -0.7 101200 36
2009-12-18 08:08:35 51°16.167 2°54.156 8.6 35 -0.7 101200 36
2009-12-18 08:08:39 51°16.166 2°54.153 8.2 320 -0.6 101200 37
2009-12-18 08:08:45 51°16.164 2°54.148 10.4 317 -0.6 101200 37
2009-12-18 08:08:50 51°16.162 2°54.143 10.1 282 -0.6 101200 36
2009-12-18 08:08:55 51°16.161 2°54.139 10 33 -0.6 101200 36
2009-12-18 08:08:59 51°16.159 2°54.136 9.4 286 -0.6 101190 37
2009-12-18 08:09:05 51°16.157 2°54.13 9.5 35 -0.6 101190 37
2009-12-18 08:09:10 51°16.155 2°54.125 10.8 282 -0.6 101190 37
2009-12-18 08:09:15 51°16.154 2°54.121 9 35 -0.6 101190 37
2009-12-18 08:09:19 51°16.152 2°54.117 8.6 281 -0.7 101190 34
2009-12-18 08:09:25 51°16.151 2°54.112 8.5 29 -0.7 101190 34
2009-12-18 08:09:30 51°16.149 2°54.108 10.3 281 -0.7 101190 36
2009-12-18 08:09:35 51°16.148 2°54.103 10.5 238 -0.7 101190 36
2009-12-18 08:09:39 51°16.147 2°54.1 9.9 26 -0.8 101180 33
2009-12-18 08:09:45 51°16.145 2°54.095 9.3 240 -0.8 101180 33
2009-12-18 08:09:50 51°16.143 2°54.091 9.2 286 -0.8 101190 34
2009-12-18 08:09:55 51°16.142 2°54.086 8.5 241 -0.8 101190 34
2009-12-18 08:09:59 51°16.141 2°54.083 10.1 284 -0.8 101190 35
2009-12-18 08:10:05 51°16.139 2°54.078 9.3 245 -0.8 101190 35
2009-12-18 08:10:10 51°16.137 2°54.073 8.4 281 -0.8 101180 35
2009-12-18 08:10:15 51°16.135 2°54.07 8.3 249 -0.8 101180 35
2009-12-18 08:10:19 51°16.134 2°54.066 9.4 287 -0.8 101190 33
2009-12-18 08:10:25 51°16.131 2°54.063 8.7 254 -0.8 101190 33
2009-12-18 08:10:30 51°16.128 2°54.059 9.6 280 -0.8 101190 33
2009-12-18 08:10:35 51°16.126 2°54.056 6.5 260 -0.8 101190 33
2009-12-18 08:10:39 51°16.123 2°54.052 4.7 259 -0.8 101180 35
2009-12-18 08:10:45 51°16.119 2°54.049 6.3 261 -0.8 101180 35
2009-12-18 08:10:50 51°16.115 2°54.045 5.8 285 -0.7 101190 37
2009-12-18 08:10:55 51°16.111 2°54.041 6 263 -0.7 101190 37
2009-12-18 08:10:59 51°16.108 2°54.038 6.8 282 -0.7 101190 35
2009-12-18 08:11:05 51°16.102 2°54.033 6 264 -0.7 101190 35
2009-12-18 08:11:10 51°16.098 2°54.028 8.3 283 -0.7 101190 36
2009-12-18 08:11:15 51°16.093 2°54.023 7.6 38 -0.7 101190 36
2009-12-18 08:11:19 51°16.09 2°54.018 6.1 80 -0.6 101190 37
2009-12-18 08:11:25 51°16.084 2°54.009 7.5 34 -0.6 101190 37
2009-12-18 08:11:30 51°16.079 2°54.003 8 73 -0.6 101200 37
2009-12-18 08:11:35 51°16.075 2°53.995 9.5 30 -0.6 101200 37
2009-12-18 08:11:39 51°16.072 2°53.988 7.7 18 -0.7 101190 36
2009-12-18 08:11:45 51°16.067 2°53.979 7.6 32 -0.7 101190 36
2009-12-18 08:11:50 51°16.064 2°53.969 7.1 77 -0.7 101200 34
2009-12-18 08:11:55 51°16.061 2°53.959 5.4 37 -0.7 101200 34
2009-12-18 08:11:59 51°16.059 2°53.951 4.6 75 -0.7 101210 33
2009-12-18 08:12:05 51°16.056 2°53.939 4.3 33 -0.7 101210 33
2009-12-18 08:12:10 51°16.055 2°53.929 6.1 77 -0.8 101210 34
2009-12-18 08:12:15 51°16.054 2°53.918 8.4 32 -0.8 101210 34
2009-12-18 08:12:19 51°16.053 2°53.91 6.3 41 -0.8 101200 33
2009-12-18 08:12:25 51°16.053 2°53.898 6.9 39 -0.8 101200 33
2009-12-18 08:12:30 51°16.054 2°53.888 6.5 29 -0.7 101210 33
2009-12-18 08:12:35 51°16.054 2°53.878 7.1 29 -0.7 101210 33
2009-12-18 08:12:39 51°16.055 2°53.87 8.6 30 -0.8 101210 33
2009-12-18 08:12:45 51°16.058 2°53.859 9.1 25 -0.8 101210 33
2009-12-18 08:12:50 51°16.06 2°53.85 9 23 -0.7 101210 34
2009-12-18 08:12:55 51°16.063 2°53.841 11.2 21 -0.7 101210 34
2009-12-18 08:13:00 51°16.066 2°53.832 11 20 -0.7 101200 36
2009-12-18 08:13:05 51°16.071 2°53.823 11.1 18 -0.7 101200 36
2009-12-18 08:13:10 51°16.075 2°53.816 8.9 15 -0.7 101190 34
2009-12-18 08:13:15 51°16.081 2°53.808 9.7 14 -0.7 101190 34
2009-12-18 08:13:20 51°16.087 2°53.8 10 13 -0.8 101190 35
2009-12-18 08:13:25 51°16.093 2°53.793 10.4 12 -0.8 101190 35
2009-12-18 08:13:30 51°16.1 2°53.784 8.8 17 -0.8 101180 35
2009-12-18 08:13:35 51°16.107 2°53.775 8.6 14 -0.8 101180 35
2009-12-18 08:13:39 51°16.113 2°53.767 8.7 18 -0.8 101190 33
2009-12-18 08:13:45 51°16.122 2°53.753 8 20 -0.8 101190 33
2009-12-18 08:13:50 51°16.13 2°53.741 7 17 -0.8 101190 35
2009-12-18 08:13:55 51°16.137 2°53.727 6.9 21 -0.8 101190 35
2009-12-18 08:13:59 51°16.144 2°53.716 7.4 22 -0.8 101180 34
2009-12-18 08:14:05 51°16.154 2°53.698 7.7 17 -0.8 101180 34
2009-12-18 08:14:10 51°16.162 2°53.682 7.6 13 -0.8 101170 34
2009-12-18 08:14:15 51°16.171 2°53.665 6.3 18 -0.8 101170 34
2009-12-18 08:14:19 51°16.178 2°53.652 7.2 17 -0.7 101190 35
2009-12-18 08:14:25 51°16.19 2°53.632 7.6 10 -0.7 101190 35
2009-12-18 08:14:30 51°16.199 2°53.615 9 13 -0.7 101200 34
2009-12-18 08:14:35 51°16.21 2°53.6 10.8 9 -0.7 101200 34
2009-12-18 08:14:39 51°16.218 2°53.586 9.5 13 -0.7 101200 33
2009-12-18 08:14:45 51°16.23 2°53.567 9 8 -0.7 101200 33
2009-12-18 08:14:50 51°16.242 2°53.552 10.5 12 -0.7 101210 36
2009-12-18 08:14:55 51°16.252 2°53.536 11.3 10 -0.7 101210 36
2009-12-18 08:14:59 51°16.262 2°53.525 12.4 9 -0.7 101200 36
2009-12-18 08:15:05 51°16.275 2°53.508 10.7 8 -0.7 101200 36
2009-12-18 08:15:10 51°16.287 2°53.495 12.2 10 -0.6 101190 36
2009-12-18 08:15:15 51°16.299 2°53.482 13.3 10 -0.6 101190 36
2009-12-18 08:15:19 51°16.308 2°53.472 11.3 8 -0.7 101190 36
2009-12-18 08:15:25 51°16.322 2°53.456 11.4 10 -0.7 101190 36
2009-12-18 08:15:30 51°16.333 2°53.443 11.1 10 -0.7 101190 34
2009-12-18 08:15:35 51°16.345 2°53.43 9.6 10 -0.7 101190 34
2009-12-18 08:15:39 51°16.355 2°53.418 10.6 7 -0.7 101170 35
2009-12-18 08:15:45 51°16.369 2°53.402 11.6 14 -0.7 101170 35
2009-12-18 08:15:50 51°16.38 2°53.388 9.2 20 -0.7 101190 35
2009-12-18 08:15:55 51°16.392 2°53.373 10.2 13 -0.7 101190 35
2009-12-18 08:15:59 51°16.401 2°53.362 11.7 15 -0.7 101180 34
2009-12-18 08:16:05 51°16.415 2°53.344 9.2 13 -0.7 101180 34
2009-12-18 08:16:10 51°16.427 2°53.33 8.5 15 -0.7 101180 33
2009-12-18 08:16:15 51°16.438 2°53.314 8.9 16 -0.7 101180 33
2009-12-18 08:16:19 51°16.447 2°53.302 8.5 15 -0.6 101200 35
2009-12-18 08:16:25 51°16.461 2°53.284 9.4 9 -0.6 101200 35
2009-12-18 08:16:30 51°16.473 2°53.269 9.3 16 -0.7 101190 33
2009-12-18 08:16:35 51°16.484 2°53.253 8.9 15 -0.7 101190 33
2009-12-18 08:16:39 51°16.494 2°53.241 10.4 12 -0.7 101190 32
2009-12-18 08:16:45 51°16.508 2°53.222 9.4 7 -0.7 101190 32
2009-12-18 08:16:50 51°16.519 2°53.208 12 12 -0.7 101200 35
2009-12-18 08:16:55 51°16.53 2°53.193 10 15 -0.7 101200 35
2009-12-18 08:16:59 51°16.54 2°53.181 9.8 14 -0.6 101190 33
2009-12-18 08:17:05 51°16.553 2°53.162 9.9 16 -0.6 101190 33
2009-12-18 08:17:10 51°16.565 2°53.148 9.5 13 -0.6 101200 34
2009-12-18 08:17:15 51°16.576 2°53.132 8.2 16 -0.6 101200 34
2009-12-18 08:17:19 51°16.586 2°53.121 9.6 17 -0.6 101190 32
2009-12-18 08:17:25 51°16.599 2°53.103 9.1 12 -0.6 101190 32
2009-12-18 08:17:30 51°16.611 2°53.088 8.2 12 -0.6 101190 34
2009-12-18 08:17:35 51°16.622 2°53.073 8.4 5 -0.6 101190 34
2009-12-18 08:17:39 51°16.632 2°53.062 11 14 -0.6 101200 33
2009-12-18 08:17:45 51°16.645 2°53.043 9 8 -0.6 101200 33
2009-12-18 08:17:50 51°16.656 2°53.029 11 11 -0.5 101200 35
2009-12-18 08:17:55 51°16.667 2°53.014 9.3 16 -0.5 101200 35
2009-12-18 08:17:59 51°16.677 2°53.002 9.4 14 -0.5 101200 34
2009-12-18 08:18:05 51°16.69 2°52.985 9.2 13 -0.5 101200 34
2009-12-18 08:18:10 51°16.701 2°52.969 8.3 15 -0.5 101200 34
2009-12-18 08:18:15 51°16.713 2°52.955 8.2 15 -0.5 101200 34
2009-12-18 08:18:19 51°16.722 2°52.943 8.4 11 -0.5 101190 35
2009-12-18 08:18:25 51°16.735 2°52.926 8.3 9 -0.5 101190 35
2009-12-18 08:18:30 51°16.747 2°52.912 9.8 9 -0.5 101190 35
2009-12-18 08:18:35 51°16.758 2°52.897 9.7 13 -0.5 101190 35
2009-12-18 08:18:39 51°16.767 2°52.886 10.4 13 -0.5 101200 33
2009-12-18 08:18:45 51°16.78 2°52.869 8.1 9 -0.5 101200 33
2009-12-18 08:18:50 51°16.791 2°52.855 9.5 13 -0.5 101200 33
2009-12-18 08:18:55 51°16.803 2°52.84 8.8 15 -0.5 101200 33
2009-12-18 08:18:59 51°16.812 2°52.829 8.8 12 -0.4 101210 33
2009-12-18 08:19:05 51°16.825 2°52.812 9.1 9 -0.4 101210 33
2009-12-18 08:19:10 51°16.836 2°52.797 9.8 16 -0.4 101200 35
2009-12-18 08:19:15 51°16.847 2°52.782 10.3 12 -0.4 101200 35
2009-12-18 08:19:20 51°16.858 2°52.768 9.7 14 -0.4 101200 35
2009-12-18 08:19:25 51°16.869 2°52.754 10.1 12 -0.4 101200 35
2009-12-18 08:19:30 51°16.88 2°52.739 8.4 17 -0.4 101210 36
2009-12-18 08:19:35 51°16.891 2°52.724 9.4 13 -0.4 101210 36
2009-12-18 08:19:40 51°16.902 2°52.71 8.3 16 -0.4 101200 34
2009-12-18 08:19:45 51°16.913 2°52.695 8.2 19 -0.4 101200 34
2009-12-18 08:19:50 51°16.925 2°52.682 9.4 16 -0.4 101210 34
2009-12-18 08:19:55 51°16.936 2°52.668 9.5 10 -0.4 101210 34
2009-12-18 08:19:59 51°16.945 2°52.658 11.4 15 -0.4 101200 31
2009-12-18 08:20:05 51°16.959 2°52.641 11.9 16 -0.4 101200 31
2009-12-18 08:20:10 51°16.971 2°52.629 10.9 16 -0.4 101210 35
2009-12-18 08:20:15 51°16.982 2°52.616 11.9 14 -0.4 101210 35
2009-12-18 08:20:19 51°16.992 2°52.606 12.8 9 -0.4 101210 34
2009-12-18 08:20:25 51°17.006 2°52.591 13.5 12 -0.4 101210 34
2009-12-18 08:20:30 51°17.017 2°52.579 14.4 11 -0.4 101200 34
2009-12-18 08:20:35 51°17.029 2°52.566 12.1 10 -0.4 101200 34
2009-12-18 08:20:39 51°17.038 2°52.556 10.3 13 -0.4 101200 35
2009-12-18 08:20:45 51°17.052 2°52.541 11.1 14 -0.4 101200 35
2009-12-18 08:20:50 51°17.063 2°52.53 11.2 11 -0.3 101220 35
2009-12-18 08:20:55 51°17.074 2°52.518 11.5 13 -0.3 101220 35
2009-12-18 08:20:59 51°17.083 2°52.508 9.4 17 -0.3 101200 35
2009-12-18 08:21:05 51°17.096 2°52.493 11.3 15 -0.3 101200 35
2009-12-18 08:21:10 51°17.107 2°52.481 12.1 13 -0.3 101190 34
2009-12-18 08:21:15 51°17.118 2°52.47 8.7 13 -0.3 101190 34
2009-12-18 08:21:19 51°17.127 2°52.46 9.7 8 -0.3 101210 35
2009-12-18 08:21:25 51°17.14 2°52.446 10.3 9 -0.3 101210 35
2009-12-18 08:21:30 51°17.151 2°52.434 8.9 13 -0.3 101210 34
2009-12-18 08:21:35 51°17.162 2°52.421 13.1 9 -0.3 101210 34
2009-12-18 08:21:39 51°17.171 2°52.411 12 10 -0.3 101220 35
2009-12-18 08:21:45 51°17.185 2°52.397 9.5 7 -0.3 101220 35
2009-12-18 08:21:50 51°17.196 2°52.385 9.1 10 -0.3 101210 33
2009-12-18 08:21:55 51°17.208 2°52.372 11.5 11 -0.3 101210 33
2009-12-18 08:21:59 51°17.218 2°52.363 10.9 7 -0.3 101200 34
2009-12-18 08:22:05 51°17.232 2°52.348 8.9 6 -0.3 101200 34
2009-12-18 08:22:10 51°17.244 2°52.336 11.3 9 -0.3 101190 33
2009-12-18 08:22:15 51°17.255 2°52.324 9.3 8 -0.3 101190 33
2009-12-18 08:22:19 51°17.264 2°52.314 9 8 -0.3 101190 34
2009-12-18 08:22:25 51°17.278 2°52.299 9.8 12 -0.3 101190 34
2009-12-18 08:22:30 51°17.288 2°52.286 10.5 9 -0.3 101190 33
2009-12-18 08:22:36 51°17.3 2°52.272 10.9 10 -0.3 101190 33
2009-12-18 08:22:41 51°17.311 2°52.261 11.4 11 -0.3 101190 33
2009-12-18 08:22:46 51°17.322 2°52.249 8.9 14 -0.3 101190 33
2009-12-18 08:22:51 51°17.332 2°52.236 11.5 11 -0.2 101200 35
2009-12-18 08:22:56 51°17.344 2°52.224 12.7 13 -0.2 101200 35
2009-12-18 08:23:00 51°17.352 2°52.214 11.9 15 -0.2 101200 35
2009-12-18 08:23:06 51°17.366 2°52.2 11.5 14 -0.2 101200 35
2009-12-18 08:23:10 51°17.374 2°52.19 12.1 13 -0.2 101210 35
2009-12-18 08:23:15 51°17.386 2°52.179 12 15 -0.2 101210 35
2009-12-18 08:23:20 51°17.397 2°52.166 12.2 14 -0.2 101190 35
2009-12-18 08:23:25 51°17.409 2°52.154 11.8 11 -0.2 101190 35
2009-12-18 08:23:30 51°17.42 2°52.142 11.7 9 -0.2 101210 34
2009-12-18 08:23:35 51°17.432 2°52.13 12.3 7 -0.2 101210 34
2009-12-18 08:23:40 51°17.444 2°52.118 11.3 6 -0.2 101200 35
2009-12-18 08:23:45 51°17.455 2°52.105 13.6 12 -0.2 101200 35
2009-12-18 08:23:50 51°17.467 2°52.093 11.6 13 -0.2 101200 33
2009-12-18 08:23:55 51°17.479 2°52.081 12.3 13 -0.2 101200 33
2009-12-18 08:23:59 51°17.488 2°52.07 11.9 8 -0.2 101200 33
2009-12-18 08:24:05 51°17.503 2°52.056 12.4 14 -0.2 101200 33
2009-12-18 08:24:10 51°17.514 2°52.043 12.4 11 -0.2 101190 34
2009-12-18 08:24:15 51°17.526 2°52.032 11.8 12 -0.2 101190 34
2009-12-18 08:24:19 51°17.535 2°52.021 11.8 12 -0.2 101210 33
2009-12-18 08:24:25 51°17.549 2°52.006 11.2 10 -0.2 101210 33
2009-12-18 08:24:30 51°17.561 2°51.994 10.1 16 -0.2 101210 33
2009-12-18 08:24:35 51°17.573 2°51.981 11.5 14 -0.2 101210 33
2009-12-18 08:24:39 51°17.582 2°51.972 12.8 14 -0.2 101210 33
2009-12-18 08:24:45 51°17.596 2°51.956 11.3 15 -0.2 101210 33
2009-12-18 08:24:50 51°17.607 2°51.944 9.4 8 -0.2 101210 32
2009-12-18 08:24:55 51°17.619 2°51.932 10.4 17 -0.2 101210 32
2009-12-18 08:24:59 51°17.628 2°51.921 11.3 10 -0.1 101200 34
2009-12-18 08:25:05 51°17.642 2°51.906 9 9 -0.1 101200 34
2009-12-18 08:25:10 51°17.653 2°51.893 10.5 18 -0.2 101210 32
2009-12-18 08:25:15 51°17.665 2°51.881 9.9 19 -0.2 101210 32
2009-12-18 08:25:19 51°17.673 2°51.87 10.2 19 -0.2 101210 33
2009-12-18 08:25:25 51°17.687 2°51.856 8.1 16 -0.2 101210 33
2009-12-18 08:25:30 51°17.698 2°51.843 8.9 13 -0.2 101210 33
2009-12-18 08:25:35 51°17.709 2°51.831 7.7 10 -0.2 101210 33
2009-12-18 08:25:39 51°17.718 2°51.82 7.8 13 -0.2 101200 33
2009-12-18 08:25:45 51°17.732 2°51.806 9.1 13 -0.2 101200 33
2009-12-18 08:25:50 51°17.743 2°51.793 8.9 10 -0.2 101210 34
2009-12-18 08:25:55 51°17.755 2°51.781 9.7 11 -0.2 101210 34
2009-12-18 08:25:59 51°17.764 2°51.77 8.5 15 -0.1 101210 33
2009-12-18 08:26:05 51°17.779 2°51.756 11.3 12 -0.1 101210 33
2009-12-18 08:26:10 51°17.79 2°51.743 11.6 11 -0.1 101210 35
2009-12-18 08:26:15 51°17.802 2°51.731 11.9 12 -0.1 101210 35
2009-12-18 08:26:19 51°17.812 2°51.72 12.2 10 -0.1 101210 34
2009-12-18 08:26:25 51°17.826 2°51.706 10.4 11 -0.1 101210 34
2009-12-18 08:26:30 51°17.838 2°51.694 9.6 8 -0.1 101210 35
2009-12-18 08:26:35 51°17.85 2°51.681 12.9 9 -0.1 101210 35
2009-12-18 08:26:39 51°17.86 2°51.671 11.6 8 -0.1 101210 34
2009-12-18 08:26:45 51°17.874 2°51.656 10.6 10 -0.1 101210 34
2009-12-18 08:26:50 51°17.887 2°51.644 10.9 16 -0.1 101210 34
2009-12-18 08:26:55 51°17.898 2°51.631 8.4 14 -0.1 101210 34
2009-12-18 08:27:00 51°17.909 2°51.619 12.4 10 -0.1 101210 35
2009-12-18 08:27:05 51°17.921 2°51.606 11.1 7 -0.1 101210 35
2009-12-18 08:27:10 51°17.933 2°51.594 12.4 11 -0.1 101210 33
2009-12-18 08:27:15 51°17.945 2°51.582 13.2 12 -0.1 101210 33
2009-12-18 08:27:19 51°17.954 2°51.57 12.5 13 -0.1 101220 34
2009-12-18 08:27:25 51°17.968 2°51.555 11.7 17 -0.1 101220 34
2009-12-18 08:27:30 51°17.98 2°51.542 14.9 8 -999 101210 34
2009-12-18 08:27:35 51°17.992 2°51.53 14.4 10 -999 101210 34
2009-12-18 08:27:40 51°18.003 2°51.517 13.8 13 -999 101210 34
2009-12-18 08:27:45 51°18.015 2°51.504 12.7 17 -999 101210 34
2009-12-18 08:27:50 51°18.027 2°51.491 9.5 14 -0.1 101200 33
2009-12-18 08:27:55 51°18.039 2°51.478 10.4 15 -0.1 101200 33
2009-12-18 08:28:00 51°18.051 2°51.465 12 13 -999 101210 33
2009-12-18 08:28:05 51°18.063 2°51.453 11.7 12 -999 101210 33
2009-12-18 08:28:10 51°18.075 2°51.44 9.6 14 -999 101200 34
2009-12-18 08:28:15 51°18.086 2°51.427 9.4 16 -999 101200 34
2009-12-18 08:28:20 51°18.097 2°51.414 10.9 16 -999 101220 35
2009-12-18 08:28:25 51°18.108 2°51.402 10.9 13 -999 101220 35
2009-12-18 08:28:30 51°18.12 2°51.388 8.8 12 -0.1 101220 34
2009-12-18 08:28:35 51°18.131 2°51.377 9.6 6 -0.1 101220 34
2009-12-18 08:28:39 51°18.14 2°51.366 9.6 11 -0.1 101220 34
2009-12-18 08:28:45 51°18.154 2°51.351 10.4 12 -0.1 101220 34
2009-12-18 08:28:50 51°18.166 2°51.339 9.6 11 -0.1 101220 33
2009-12-18 08:28:55 51°18.178 2°51.326 9.8 12 -0.1 101220 33
2009-12-18 08:29:00 51°18.19 2°51.314 10 8 -999 101220 34
2009-12-18 08:29:05 51°18.201 2°51.301 9.9 11 -999 101220 34
2009-12-18 08:29:10 51°18.213 2°51.288 8 11 -0.1 101200 34
2009-12-18 08:29:15 51°18.225 2°51.275 9 8 -0.1 101200 34
2009-12-18 08:29:19 51°18.235 2°51.265 9.1 13 -0.1 101210 32
2009-12-18 08:29:25 51°18.249 2°51.25 8.6 9 -0.1 101210 32
2009-12-18 08:29:30 51°18.259 2°51.238 10 11 -0.1 101220 34
2009-12-18 08:29:35 51°18.269 2°51.225 10 12 -0.1 101220 34
2009-12-18 08:29:39 51°18.278 2°51.216 8.1 15 -0.1 101220 34
2009-12-18 08:29:45 51°18.288 2°51.203 7.9 14 -0.1 101220 34
2009-12-18 08:29:49 51°18.296 2°51.194 6.5 11 -999 101230 35
2009-12-18 08:29:55 51°18.306 2°51.182 10.1 17 -999 101230 35
2009-12-18 08:30:00 51°18.315 2°51.171 12.2 13 -999 101220 33
2009-12-18 08:30:05 51°18.324 2°51.161 12.3 14 -999 101220 33
2009-12-18 08:30:10 51°18.332 2°51.15 10.5 16 -999 101220 33
2009-12-18 08:30:15 51°18.341 2°51.14 11.2 16 -999 101220 33
2009-12-18 08:30:20 51°18.349 2°51.13 10.9 19 0.1 101220 35
2009-12-18 08:30:25 51°18.357 2°51.12 10.2 18 0.1 101220 35
2009-12-18 08:30:30 51°18.365 2°51.109 10 16 0.1 101220 35
2009-12-18 08:30:35 51°18.373 2°51.1 11.1 17 0.1 101220 35
2009-12-18 08:30:40 51°18.381 2°51.09 8.4 16 -999 101230 34
2009-12-18 08:30:45 51°18.389 2°51.08 9.2 20 -999 101230 34
2009-12-18 08:30:50 51°18.397 2°51.07 9.1 15 -999 101220 35
2009-12-18 08:30:55 51°18.405 2°51.06 8.8 16 -999 101220 35
2009-12-18 08:30:59 51°18.411 2°51.052 9.9 18 -999 101220 34
2009-12-18 08:31:05 51°18.421 2°51.04 10.2 19 -999 101220 34
2009-12-18 08:31:10 51°18.429 2°51.03 8.7 17 -999 101230 34
2009-12-18 08:31:15 51°18.437 2°51.02 9.1 18 -999 101230 34
2009-12-18 08:31:20 51°18.445 2°51.011 9.8 12 -999 101220 35
2009-12-18 08:31:25 51°18.453 2°51.002 9.4 14 -999 101220 35
2009-12-18 08:31:30 51°18.461 2°50.993 10.7 7 -999 101230 33
2009-12-18 08:31:35 51°18.469 2°50.986 9.8 5 -999 101230 33
2009-12-18 08:31:40 51°18.476 2°50.981 9.9 6 -999 101220 35
2009-12-18 08:31:45 51°18.483 2°50.977 11.7 1 -999 101220 35
2009-12-18 08:31:50 51°18.488 2°50.975 11.4 360 -999 101220 35
2009-12-18 08:31:55 51°18.492 2°50.973 12.1 359 -999 101220 35
2009-12-18 08:31:59 51°18.496 2°50.973 12.1 355 0.1 101230 36
2009-12-18 08:32:05 51°18.5 2°50.973 12.1 353 0.1 101230 36
2009-12-18 08:32:10 51°18.503 2°50.975 10.7 350 -999 101200 33
2009-12-18 08:32:15 51°18.506 2°50.976 10.5 344 -999 101200 33
2009-12-18 08:32:19 51°18.508 2°50.978 10.8 280 -999 101200 34
2009-12-18 08:32:25 51°18.51 2°50.981 11 342 -999 101200 34
2009-12-18 08:32:30 51°18.512 2°50.983 10.8 285 -999 101250 33
2009-12-18 08:32:35 51°18.512 2°50.987 11.1 333 -999 101250 33
2009-12-18 08:32:39 51°18.513 2°50.989 10.2 332 -999 101230 34
2009-12-18 08:32:45 51°18.513 2°50.994 11 332 -999 101230 34
2009-12-18 08:32:50 51°18.513 2°50.997 9.6 281 0.1 101240 34
2009-12-18 08:32:55 51°18.511 2°51.001 9.4 321 0.1 101240 34
2009-12-18 08:32:59 51°18.51 2°51.004 9.1 283 0.1 101250 34
2009-12-18 08:33:05 51°18.507 2°51.008 10.3 32 0.1 101250 34
2009-12-18 08:33:10 51°18.506 2°51.01 10.7 281 -999 101250 35
2009-12-18 08:33:15 51°18.503 2°51.012 9.9 34 -999 101250 35
2009-12-18 08:33:19 51°18.501 2°51.013 11 283 -999 101240 34
2009-12-18 08:33:25 51°18.498 2°51.013 12.4 34 -999 101240 34
2009-12-18 08:33:30 51°18.495 2°51.013 10.9 287 -999 101230 35
2009-12-18 08:33:35 51°18.492 2°51.012 11.1 32 -999 101230 35
2009-12-18 08:33:39 51°18.489 2°51.011 11.2 22 -999 101220 35
2009-12-18 08:33:45 51°18.486 2°51.009 11 237 -999 101220 35
2009-12-18 08:33:50 51°18.483 2°51.007 11.4 281 -999 101230 33
2009-12-18 08:33:55 51°18.48 2°51.005 12.7 35 -999 101230 33
2009-12-18 08:34:00 51°18.477 2°51.003 11 286 -999 101220 35
2009-12-18 08:34:05 51°18.474 2°51.001 11.7 32 -999 101220 35
2009-12-18 08:34:10 51°18.471 2°50.999 11.5 23 0.1 101220 35
2009-12-18 08:34:15 51°18.469 2°50.997 11.2 32 0.1 101220 35
2009-12-18 08:34:20 51°18.466 2°50.994 11.5 280 0.1 101230 36
2009-12-18 08:34:25 51°18.463 2°50.991 10.3 35 0.1 101230 36
2009-12-18 08:34:30 51°18.461 2°50.989 10.7 287 0.1 101220 34
2009-12-18 08:34:35 51°18.458 2°50.986 9.6 31 0.1 101220 34
2009-12-18 08:34:40 51°18.456 2°50.983 9.9 18 0.1 101220 33
2009-12-18 08:34:45 51°18.453 2°50.979 11 33 0.1 101220 33
2009-12-18 08:34:50 51°18.451 2°50.977 9.8 286 -999 101230 33
2009-12-18 08:34:55 51°18.448 2°50.973 9.6 239 -999 101230 33
2009-12-18 08:35:00 51°18.445 2°50.97 10.1 280 -999 101240 34
2009-12-18 08:35:05 51°18.443 2°50.966 10.6 238 -999 101240 34
2009-12-18 08:35:10 51°18.44 2°50.963 10 281 -999 101230 33
2009-12-18 08:35:15 51°18.438 2°50.959 10 249 -999 101230 33
2009-12-18 08:35:19 51°18.436 2°50.956 9.6 286 -999 101240 33
2009-12-18 08:35:25 51°18.433 2°50.952 9.7 249 -999 101240 33
2009-12-18 08:35:30 51°18.43 2°50.948 8.4 281 -999 101230 33
2009-12-18 08:35:35 51°18.428 2°50.945 6.6 247 -999 101230 33
2009-12-18 08:35:39 51°18.426 2°50.942 7.5 18 -999 101230 34
2009-12-18 08:35:45 51°18.424 2°50.937 8.4 247 -999 101230 34
2009-12-18 08:35:50 51°18.422 2°50.934 7.4 287 -999 101230 33
2009-12-18 08:35:55 51°18.419 2°50.93 7.6 247 -999 101230 33
2009-12-18 08:35:59 51°18.417 2°50.927 8.5 285 0.1 101230 34
2009-12-18 08:36:05 51°18.415 2°50.922 10.1 248 0.1 101230 34
2009-12-18 08:36:10 51°18.413 2°50.919 12.4 280 0.1 101240 33
2009-12-18 08:36:15 51°18.41 2°50.915 12.8 253 0.1 101240 33
2009-12-18 08:36:20 51°18.408 2°50.911 11.1 280 0.1 101240 34
2009-12-18 08:36:25 51°18.406 2°50.907 11.7 254 0.1 101240 34
2009-12-18 08:36:30 51°18.404 2°50.903 12.1 279 0.1 101240 36
2009-12-18 08:36:35 51°18.402 2°50.899 10.1 260 0.1 101240 36
2009-12-18 08:36:40 51°18.4 2°50.895 11.7 258 0.1 101230 34
2009-12-18 08:36:45 51°18.398 2°50.891 9 261 0.1 101230 34
2009-12-18 08:36:50 51°18.396 2°50.887 12 284 0.1 101240 35
2009-12-18 08:36:55 51°18.393 2°50.883 11.1 255 0.1 101240 35
2009-12-18 08:37:00 51°18.391 2°50.878 9.8 281 0.1 101230 34
2009-12-18 08:37:05 51°18.389 2°50.875 9.6 259 0.1 101230 34
2009-12-18 08:37:10 51°18.387 2°50.871 10.7 285 0.1 101230 34
2009-12-18 08:37:15 51°18.385 2°50.867 8.2 259 0.1 101230 34
2009-12-18 08:37:19 51°18.383 2°50.863 8.6 286 0.2 101230 36
2009-12-18 08:37:25 51°18.381 2°50.859 9 261 0.2 101230 36
2009-12-18 08:37:30 51°18.378 2°50.854 9.7 284 0.2 101230 35
2009-12-18 08:37:35 51°18.376 2°50.851 8.4 261 0.2 101230 35
2009-12-18 08:37:39 51°18.374 2°50.847 8.6 260 0.1 101240 34
2009-12-18 08:37:45 51°18.37 2°50.843 6.6 260 0.1 101240 34
2009-12-18 08:37:50 51°18.367 2°50.84 6.9 283 0.1 101240 34
2009-12-18 08:37:55 51°18.365 2°50.835 6.2 264 0.1 101240 34
2009-12-18 08:37:59 51°18.361 2°50.832 6.3 281 0.1 101240 32
2009-12-18 08:38:05 51°18.357 2°50.828 6.6 265 0.1 101240 32
2009-12-18 08:38:10 51°18.353 2°50.824 6.4 285 0.1 101240 32
2009-12-18 08:38:15 51°18.349 2°50.819 7.6 268 0.1 101240 32
2009-12-18 08:38:19 51°18.346 2°50.816 10.4 280 -999 101230 32
2009-12-18 08:38:25 51°18.341 2°50.81 9.5 270 -999 101230 32
2009-12-18 08:38:30 51°18.336 2°50.805 10.3 75 -999 101240 32
2009-12-18 08:38:35 51°18.331 2°50.799 9.6 33 -999 101240 32
2009-12-18 08:38:39 51°18.327 2°50.794 9.5 19 0.1 101240 33
2009-12-18 08:38:45 51°18.321 2°50.786 8 36 0.1 101240 33
2009-12-18 08:38:50 51°18.315 2°50.778 9.1 77 -999 101240 31
2009-12-18 08:38:55 51°18.311 2°50.769 7.4 30 -999 101240 31
2009-12-18 08:38:59 51°18.307 2°50.762 7.1 75 -999 101240 32
2009-12-18 08:39:05 51°18.302 2°50.75 5.3 31 -999 101240 32
2009-12-18 08:39:10 51°18.298 2°50.739 4.9 75 -999 101250 33
2009-12-18 08:39:15 51°18.295 2°50.728 3.8 33 -999 101250 33
2009-12-18 08:39:19 51°18.293 2°50.718 6.9 74 -999 101250 33
2009-12-18 08:39:25 51°18.291 2°50.703 6.5 42 -999 101250 33
2009-12-18 08:39:30 51°18.291 2°50.69 5.7 40 -0.1 101260 33
2009-12-18 08:39:35 51°18.292 2°50.677 6.8 40 -0.1 101260 33
2009-12-18 08:39:40 51°18.292 2°50.662 5.7 38 -999 101260 33
2009-12-18 08:39:45 51°18.293 2°50.647 6.4 41 -999 101260 33
2009-12-18 08:39:50 51°18.294 2°50.63 5.2 39 -999 101260 31
2009-12-18 08:39:55 51°18.296 2°50.612 4.5 38 -999 101260 31
2009-12-18 08:39:59 51°18.296 2°50.597 4.6 36 -999 101250 32
2009-12-18 08:40:04 51°18.298 2°50.577 3.5 40 -999 101250 32
2009-12-18 08:40:10 51°18.3 2°50.551 3.8 34 -999 101250 33
2009-12-18 08:40:15 51°18.302 2°50.529 4.2 43 -999 101250 33
2009-12-18 08:40:19 51°18.303 2°50.51 4.2 38 -0.1 101250 32
2009-12-18 08:40:25 51°18.307 2°50.483 4.7 38 -0.1 101250 32
2009-12-18 08:40:30 51°18.308 2°50.458 3.7 43 -0.1 101250 31
2009-12-18 08:40:35 51°18.311 2°50.434 5.2 40 -0.1 101250 31
2009-12-18 08:40:39 51°18.314 2°50.415 4.6 43 -0.1 101260 33
2009-12-18 08:40:45 51°18.315 2°50.384 3.9 41 -0.1 101260 33
2009-12-18 08:40:49 51°18.318 2°50.365 4.2 40 -999 101260 34
2009-12-18 08:40:55 51°18.321 2°50.335 2.9 45 -999 101260 34
2009-12-18 08:40:59 51°18.321 2°50.314 4.4 30 -999 101270 32
2009-12-18 08:41:05 51°18.325 2°50.283 4.8 40 -999 101270 32
2009-12-18 08:41:10 51°18.326 2°50.257 4.4 35 -999 101260 35
2009-12-18 08:41:15 51°18.327 2°50.231 3.8 38 -999 101260 35
2009-12-18 08:41:20 51°18.329 2°50.205 3.5 40 -999 101260 34
2009-12-18 08:41:25 51°18.33 2°50.179 4.3 44 -999 101260 34
2009-12-18 08:41:30 51°18.331 2°50.153 3 39 -999 101260 34
2009-12-18 08:41:35 51°18.334 2°50.127 3.7 31 -999 101260 34
2009-12-18 08:41:40 51°18.334 2°50.1 2.9 39 -999 101270 34
2009-12-18 08:41:45 51°18.335 2°50.074 4.2 40 -999 101270 34
2009-12-18 08:41:50 51°18.336 2°50.048 3.9 77 -999 101260 34
2009-12-18 08:41:55 51°18.336 2°50.021 4.1 44 -999 101260 34
2009-12-18 08:41:59 51°18.338 2°50 2.9 74 -999 101260 32
2009-12-18 08:42:05 51°18.338 2°49.968 4.1 38 -999 101260 32
2009-12-18 08:42:10 51°18.338 2°49.942 4.6 38 -999 101270 35
2009-12-18 08:42:15 51°18.339 2°49.915 3.1 34 -999 101270 35
2009-12-18 08:42:19 51°18.338 2°49.893 4.3 44 0.1 101270 34
2009-12-18 08:42:25 51°18.34 2°49.862 2.5 35 0.1 101270 34
2009-12-18 08:42:30 51°18.339 2°49.835 5.4 37 0.1 101260 36
2009-12-18 08:42:35 51°18.339 2°49.808 3.9 39 0.1 101260 36
2009-12-18 08:42:39 51°18.339 2°49.787 3.9 34 0.1 101260 33
2009-12-18 08:42:45 51°18.34 2°49.755 3.5 37 0.1 101260 33
2009-12-18 08:42:50 51°18.34 2°49.728 4.4 40 0.1 101270 33
2009-12-18 08:42:55 51°18.341 2°49.702 4 40 0.1 101270 33
2009-12-18 08:42:59 51°18.34 2°49.68 4 34 0.1 101270 34
2009-12-18 08:43:05 51°18.341 2°49.649 3.3 35 0.1 101270 34
2009-12-18 08:43:10 51°18.342 2°49.623 3 25 0.1 101260 33
2009-12-18 08:43:15 51°18.34 2°49.596 6.6 32 0.1 101260 33
2009-12-18 08:43:19 51°18.342 2°49.575 3.9 25 0.1 101270 33
2009-12-18 08:43:25 51°18.341 2°49.544 7.2 32 0.1 101270 33
2009-12-18 08:43:30 51°18.342 2°49.517 6.9 38 0.1 101270 33
2009-12-18 08:43:35 51°18.341 2°49.491 4.3 41 0.1 101270 33
2009-12-18 08:43:39 51°18.341 2°49.47 4.8 39 0.1 101260 33
2009-12-18 08:43:45 51°18.342 2°49.438 4.7 35 0.1 101260 33
2009-12-18 08:43:50 51°18.344 2°49.412 4.3 37 0.1 101260 33
2009-12-18 08:43:55 51°18.344 2°49.386 4.6 37 0.1 101260 33
2009-12-18 08:43:59 51°18.344 2°49.365 5.1 37 0.1 101250 32
2009-12-18 08:44:05 51°18.346 2°49.334 4 35 0.1 101250 32
2009-12-18 08:44:10 51°18.345 2°49.308 4.7 41 0.1 101270 33
2009-12-18 08:44:15 51°18.348 2°49.283 3.8 44 0.1 101270 33
2009-12-18 08:44:19 51°18.345 2°49.261 6.2 41 0.2 101250 35
2009-12-18 08:44:25 51°18.347 2°49.231 4.1 43 0.2 101250 35
2009-12-18 08:44:30 51°18.347 2°49.205 4.6 42 0.2 101260 36
2009-12-18 08:44:35 51°18.347 2°49.178 4.9 33 0.2 101260 36
2009-12-18 08:44:39 51°18.349 2°49.158 5.4 44 0.2 101260 36
2009-12-18 08:44:45 51°18.348 2°49.126 3.2 44 0.2 101260 36
2009-12-18 08:44:50 51°18.35 2°49.1 3.8 41 0.2 101270 35
2009-12-18 08:44:55 51°18.35 2°49.074 4.8 44 0.2 101270 35
2009-12-18 08:44:59 51°18.35 2°49.054 5.8 41 0.2 101260 33
2009-12-18 08:45:05 51°18.351 2°49.023 3.8 36 0.2 101260 33
2009-12-18 08:45:10 51°18.352 2°48.997 4 72 0.2 101260 35
2009-12-18 08:45:15 51°18.35 2°48.971 3.8 33 0.2 101260 35
2009-12-18 08:45:19 51°18.352 2°48.95 3.2 36 0.2 101270 34
2009-12-18 08:45:25 51°18.353 2°48.919 3.2 36 0.2 101270 34
2009-12-18 08:45:30 51°18.352 2°48.892 4.3 33 0.2 101260 33
2009-12-18 08:45:35 51°18.354 2°48.867 5.4 35 0.2 101260 33
2009-12-18 08:45:40 51°18.354 2°48.841 4.5 25 0.1 101260 32
2009-12-18 08:45:45 51°18.355 2°48.814 4.8 30 0.1 101260 32
2009-12-18 08:45:50 51°18.357 2°48.789 4.9 27 0.1 101260 33
2009-12-18 08:45:55 51°18.358 2°48.763 6.3 33 0.1 101260 33
2009-12-18 08:45:59 51°18.359 2°48.742 6.6 32 0.2 101260 32
2009-12-18 08:46:05 51°18.362 2°48.712 6 32 0.2 101260 32
2009-12-18 08:46:05 51°18.362 2°48.712 6 32 0.2 101260 32
2009-12-18 08:46:21 51°18.368 2°48.63 4.8 29 0.2 101260 32
2009-12-18 08:46:21 51°18.368 2°48.63 4.8 29 -999 -999 -999
2009-12-18 08:46:36 51°18.374 2°48.553 5.7 30 0.3 101260 32
2009-12-18 08:46:36 51°18.374 2°48.553 5.7 30 0.3 101260 32
2009-12-18 08:46:47 51°18.38 2°48.499 6.3 22 0.3 101260 33
2009-12-18 08:46:53 51°18.384 2°48.47 6.5 23 0.3 101260 33
2009-12-18 08:46:58 51°18.386 2°48.445 6.4 31 0.3 101260 35
2009-12-18 08:47:03 51°18.388 2°48.42 7.5 31 0.3 101260 35
2009-12-18 08:47:07 51°18.39 2°48.4 7.8 28 0.3 101260 33
2009-12-18 08:47:13 51°18.394 2°48.371 7 29 0.3 101260 33
2009-12-18 08:47:18 51°18.397 2°48.345 6.6 31 0.3 101260 34
2009-12-18 08:47:23 51°18.399 2°48.32 6.2 30 0.3 101260 34
2009-12-18 08:47:27 51°18.402 2°48.3 5.5 39 0.3 101260 35
2009-12-18 08:47:33 51°18.405 2°48.27 6.4 24 0.3 101260 35
2009-12-18 08:47:38 51°18.407 2°48.245 7.6 23 0.2 101260 33
2009-12-18 08:47:43 51°18.41 2°48.219 6.8 29 0.2 101260 33
2009-12-18 08:47:47 51°18.412 2°48.199 7.2 32 0.2 101260 34
2009-12-18 08:47:53 51°18.414 2°48.169 5.2 30 0.2 101260 34
2009-12-18 08:47:58 51°18.418 2°48.144 7.2 31 0.2 101270 32
2009-12-18 08:48:03 51°18.42 2°48.118 6 31 0.2 101270 32
2009-12-18 08:48:07 51°18.422 2°48.097 9.8 27 0.2 101250 35
2009-12-18 08:48:13 51°18.425 2°48.067 6.4 29 0.2 101250 35
2009-12-18 08:48:18 51°18.428 2°48.042 7.4 29 0.2 101260 33
2009-12-18 08:48:23 51°18.431 2°48.016 5.9 27 0.2 101260 33
2009-12-18 08:48:27 51°18.433 2°47.995 6.2 29 0.2 101260 34
2009-12-18 08:48:33 51°18.437 2°47.965 5.2 30 0.2 101260 34
2009-12-18 08:48:38 51°18.439 2°47.939 5.4 30 0.2 101260 33
2009-12-18 08:48:43 51°18.442 2°47.914 6.5 30 0.2 101260 33
2009-12-18 08:48:47 51°18.444 2°47.894 7.5 32 0.2 101260 32
2009-12-18 08:48:53 51°18.447 2°47.863 8.3 29 0.2 101260 32
2009-12-18 08:48:58 51°18.449 2°47.838 4.3 26 0.1 101260 33
2009-12-18 08:49:03 51°18.452 2°47.812 4.6 28 0.1 101260 33
2009-12-18 08:49:07 51°18.455 2°47.792 4.2 33 0.1 101260 33
2009-12-18 08:49:13 51°18.457 2°47.761 6.7 31 0.1 101260 33
2009-12-18 08:49:18 51°18.46 2°47.736 6.3 35 0.1 101270 31
2009-12-18 08:49:23 51°18.462 2°47.71 5.1 27 0.1 101270 31
2009-12-18 08:49:27 51°18.464 2°47.69 6.7 34 0.2 101270 32
2009-12-18 08:49:33 51°18.463 2°47.657 6.5 38 0.2 101270 32
2009-12-18 08:49:38 51°18.466 2°47.632 4.9 37 0.1 101260 32
2009-12-18 08:49:43 51°18.465 2°47.606 5.3 41 0.1 101260 32
2009-12-18 08:49:47 51°18.465 2°47.585 6.1 40 0.1 101260 32
2009-12-18 08:49:53 51°18.463 2°47.553 5.7 37 0.1 101260 32
2009-12-18 08:49:58 51°18.464 2°47.526 3.4 41 0.1 101260 32
2009-12-18 08:50:03 51°18.463 2°47.499 5.1 43 0.1 101260 32
2009-12-18 08:50:07 51°18.461 2°47.478 4.3 24 0.1 101260 31
2009-12-18 08:50:13 51°18.462 2°47.446 3.5 44 0.1 101260 31
2009-12-18 08:50:18 51°18.459 2°47.419 3.8 44 0.1 101250 30
2009-12-18 08:50:23 51°18.458 2°47.392 4.1 36 0.1 101250 30
2009-12-18 08:50:28 51°18.456 2°47.366 4.3 23 0.1 101270 31
2009-12-18 08:50:33 51°18.455 2°47.338 4.7 51 0.1 101270 31
2009-12-18 08:50:38 51°18.453 2°47.312 4.2 27 0.1 101270 32
2009-12-18 08:50:43 51°18.451 2°47.285 3.8 53 0.1 101270 32
2009-12-18 08:50:48 51°18.45 2°47.258 4 25 -999 101280 32
2009-12-18 08:50:53 51°18.448 2°47.231 2.6 43 -999 101280 32
2009-12-18 08:50:58 51°18.446 2°47.204 3.4 40 -999 101280 30
2009-12-18 08:51:03 51°18.445 2°47.177 2.1 42 -999 101280 30
2009-12-18 08:51:07 51°18.444 2°47.156 4 25 -999 101280 29
2009-12-18 08:51:13 51°18.443 2°47.124 3.3 55 -999 101280 29
2009-12-18 08:51:18 51°18.441 2°47.097 4.2 43 -999 101270 31
2009-12-18 08:51:23 51°18.44 2°47.07 3.6 55 -999 101270 31
2009-12-18 08:51:27 51°18.44 2°47.049 4.2 20 -999 101280 32
2009-12-18 08:51:33 51°18.438 2°47.017 3.6 34 -999 101280 32
2009-12-18 08:51:38 51°18.437 2°46.99 3.4 17 -999 101280 29
2009-12-18 08:51:43 51°18.437 2°46.963 2.9 44 -999 101280 29
2009-12-18 08:51:47 51°18.436 2°46.941 1.9 25 -999 101280 30
2009-12-18 08:51:52 51°18.435 2°46.914 2.6 39 -999 101280 30
2009-12-18 08:51:58 51°18.435 2°46.881 2.8 21 -999 101270 29
2009-12-18 08:52:03 51°18.434 2°46.855 3.7 37 -999 101270 29
2009-12-18 08:52:07 51°18.433 2°46.833 2.4 22 -0.1 101280 29
2009-12-18 08:52:13 51°18.434 2°46.801 2.3 38 -0.1 101280 29
2009-12-18 08:52:18 51°18.433 2°46.774 2.2 41 -999 101280 31
2009-12-18 08:52:23 51°18.434 2°46.747 3.6 34 -999 101280 31
2009-12-18 08:52:27 51°18.435 2°46.726 2.9 23 -999 101270 29
2009-12-18 08:52:33 51°18.435 2°46.694 4.6 25 -999 101270 29
2009-12-18 08:52:38 51°18.437 2°46.668 3.9 33 -0.1 101280 31
2009-12-18 08:52:43 51°18.436 2°46.641 4.3 30 -0.1 101280 31
2009-12-18 08:52:47 51°18.438 2°46.62 5.5 35 -0.1 101280 31
2009-12-18 08:52:53 51°18.439 2°46.587 4.6 36 -0.1 101280 31
2009-12-18 08:52:58 51°18.439 2°46.56 3.7 34 -999 101280 30
2009-12-18 08:53:03 51°18.44 2°46.534 5.1 35 -999 101280 30
2009-12-18 08:53:07 51°18.441 2°46.512 4.5 37 -999 101270 30
2009-12-18 08:53:13 51°18.442 2°46.48 4.4 38 -999 101270 30
2009-12-18 08:53:18 51°18.443 2°46.453 4 24 -999 101280 31
2009-12-18 08:53:23 51°18.443 2°46.426 4 36 -999 101280 31
2009-12-18 08:53:27 51°18.444 2°46.405 4.9 36 -999 101270 32
2009-12-18 08:53:33 51°18.445 2°46.373 4.2 44 -999 101270 32
2009-12-18 08:53:38 51°18.447 2°46.346 3.8 40 -999 101280 29
2009-12-18 08:53:43 51°18.447 2°46.319 3.2 38 -999 101280 29
2009-12-18 08:53:47 51°18.447 2°46.298 3.2 42 -999 101270 32
2009-12-18 08:53:53 51°18.449 2°46.265 3 40 -999 101270 32
2009-12-18 08:53:58 51°18.45 2°46.238 3 24 -999 101270 31
2009-12-18 08:54:03 51°18.45 2°46.211 4.9 35 -999 101270 31
2009-12-18 08:54:07 51°18.451 2°46.19 3.7 39 -999 101270 30
2009-12-18 08:54:13 51°18.453 2°46.157 5.4 38 -999 101270 30
2009-12-18 08:54:18 51°18.453 2°46.13 5.4 33 -999 101270 32
2009-12-18 08:54:23 51°18.453 2°46.103 4.4 36 -999 101270 32
2009-12-18 08:54:27 51°18.455 2°46.081 4.1 43 -999 101280 32
2009-12-18 08:54:33 51°18.455 2°46.049 7.1 36 -999 101280 32
2009-12-18 08:54:38 51°18.456 2°46.022 4.3 45 0.1 101270 30
2009-12-18 08:54:43 51°18.457 2°45.995 4.4 38 0.1 101270 30
2009-12-18 08:54:47 51°18.457 2°45.973 4.8 38 0.1 101280 33
2009-12-18 08:54:53 51°18.459 2°45.941 4.5 38 0.1 101280 33
2009-12-18 08:54:57 51°18.459 2°45.919 4.6 33 0.1 101280 33
2009-12-18 08:55:03 51°18.46 2°45.887 4.4 36 0.1 101280 33
2009-12-18 08:55:07 51°18.461 2°45.865 4.3 36 0.1 101280 34
2009-12-18 08:55:13 51°18.463 2°45.833 4 38 0.1 101280 34
2009-12-18 08:55:18 51°18.464 2°45.806 4.1 32 0.1 101270 31
2009-12-18 08:55:23 51°18.465 2°45.779 3.5 32 0.1 101270 31
2009-12-18 08:55:28 51°18.466 2°45.752 3.2 35 0.1 101280 31
2009-12-18 08:55:33 51°18.467 2°45.725 6.4 31 0.1 101280 31
2009-12-18 08:55:38 51°18.468 2°45.697 6.5 35 0.1 101280 32
2009-12-18 08:55:43 51°18.47 2°45.671 6.1 27 0.1 101280 32
2009-12-18 08:55:47 51°18.469 2°45.648 5.3 35 0.2 101270 35
2009-12-18 08:55:53 51°18.471 2°45.616 4.4 31 0.2 101270 35
2009-12-18 08:55:58 51°18.472 2°45.589 4.3 33 0.2 101270 33
2009-12-18 08:56:03 51°18.473 2°45.562 5.9 31 0.2 101270 33
2009-12-18 08:56:07 51°18.474 2°45.54 3.5 37 0.2 101280 34
2009-12-18 08:56:13 51°18.475 2°45.507 4.5 37 0.2 101280 34
2009-12-18 08:56:18 51°18.475 2°45.48 3.6 38 0.2 101280 33
2009-12-18 08:56:23 51°18.476 2°45.453 4.6 37 0.2 101280 33
2009-12-18 08:56:27 51°18.477 2°45.432 5 38 0.2 101280 34
2009-12-18 08:56:33 51°18.478 2°45.398 4.8 35 0.2 101280 34
2009-12-18 08:56:38 51°18.48 2°45.372 4.6 36 0.2 101280 34
2009-12-18 08:56:43 51°18.479 2°45.344 4.1 31 0.2 101280 34
2009-12-18 08:56:47 51°18.48 2°45.322 4 33 0.1 101280 31
2009-12-18 08:56:53 51°18.481 2°45.29 3 35 0.1 101280 31
2009-12-18 08:56:58 51°18.482 2°45.263 4.1 34 0.1 101280 31
2009-12-18 08:57:03 51°18.483 2°45.235 3.5 32 0.1 101280 31
2009-12-18 08:57:07 51°18.483 2°45.214 4.2 30 0.1 101280 30
2009-12-18 08:57:13 51°18.485 2°45.181 4.9 32 0.1 101280 30
2009-12-18 08:57:18 51°18.486 2°45.154 5.8 33 0.2 101280 32
2009-12-18 08:57:23 51°18.488 2°45.128 4.9 36 0.2 101280 32
2009-12-18 08:57:27 51°18.487 2°45.106 6.5 35 0.2 101280 33
2009-12-18 08:57:33 51°18.49 2°45.074 4.8 49 0.2 101280 33
2009-12-18 08:57:38 51°18.49 2°45.048 5.6 41 0.2 101280 33
2009-12-18 08:57:43 51°18.492 2°45.021 4.8 73 0.2 101280 33
2009-12-18 08:57:48 51°18.493 2°44.995 5.2 41 0.2 101280 31
2009-12-18 08:57:53 51°18.495 2°44.968 5.1 45 0.2 101280 31
2009-12-18 08:57:58 51°18.496 2°44.941 4.5 25 0.2 101280 30
2009-12-18 08:58:03 51°18.497 2°44.914 4.2 42 0.2 101280 30
2009-12-18 08:58:07 51°18.499 2°44.894 4.7 18 0.3 101270 33
2009-12-18 08:58:13 51°18.499 2°44.861 4.8 38 0.3 101270 33
2009-12-18 08:58:18 51°18.501 2°44.834 3.8 42 0.2 101280 31
2009-12-18 08:58:23 51°18.501 2°44.807 5.3 38 0.2 101280 31
2009-12-18 08:58:27 51°18.504 2°44.787 4.9 19 0.2 101280 32
2009-12-18 08:58:33 51°18.502 2°44.754 4.6 41 0.2 101280 32
2009-12-18 08:58:38 51°18.506 2°44.729 4.6 43 0.2 101270 32
2009-12-18 08:58:43 51°18.505 2°44.702 4.7 39 0.2 101270 32
2009-12-18 08:58:47 51°18.506 2°44.681 5.3 38 0.3 101280 30
2009-12-18 08:58:53 51°18.508 2°44.649 3.8 44 0.3 101280 30
2009-12-18 08:58:58 51°18.508 2°44.623 3.8 41 0.2 101270 30
2009-12-18 08:59:03 51°18.511 2°44.597 3.9 39 0.2 101270 30
2009-12-18 08:59:07 51°18.51 2°44.575 3.8 30 0.2 101290 30
2009-12-18 08:59:13 51°18.512 2°44.544 4.9 33 0.2 101290 30
2009-12-18 08:59:18 51°18.512 2°44.517 3.5 44 0.2 101280 30
2009-12-18 08:59:23 51°18.513 2°44.491 4.4 37 0.2 101280 30
2009-12-18 08:59:27 51°18.515 2°44.47 5.2 40 0.2 101280 30
2009-12-18 08:59:33 51°18.517 2°44.439 3.8 32 0.2 101280 30
2009-12-18 08:59:38 51°18.518 2°44.413 4.7 34 0.2 101280 33
2009-12-18 08:59:43 51°18.52 2°44.387 4.7 35 0.2 101280 33
2009-12-18 08:59:47 51°18.523 2°44.367 4.1 32 0.2 101280 31
2009-12-18 08:59:53 51°18.522 2°44.334 6.3 34 0.2 101280 31
2009-12-18 08:59:58 51°18.526 2°44.31 4.6 36 0.2 101280 31
2009-12-18 09:00:03 51°18.526 2°44.283 4.1 32 0.2 101280 31
2009-12-18 09:00:08 51°18.528 2°44.257 4.8 35 0.2 101280 32
2009-12-18 09:00:13 51°18.529 2°44.231 4.2 33 0.2 101280 32
2009-12-18 09:00:18 51°18.53 2°44.205 2.5 39 0.2 101280 33
2009-12-18 09:00:23 51°18.533 2°44.18 1.6 34 0.2 101280 33
2009-12-18 09:00:27 51°18.534 2°44.159 2.4 33 0.2 101280 32
2009-12-18 09:00:33 51°18.536 2°44.126 4.1 42 0.2 101280 32
2009-12-18 09:00:38 51°18.538 2°44.101 4.1 44 0.1 101280 31
2009-12-18 09:00:43 51°18.539 2°44.075 2.7 38 0.1 101280 31
2009-12-18 09:00:47 51°18.54 2°44.053 2.5 19 0.1 101290 30
2009-12-18 09:00:53 51°18.544 2°44.022 2.8 57 0.1 101290 30
2009-12-18 09:00:58 51°18.543 2°43.995 2.4 18 0.1 101280 31
2009-12-18 09:01:03 51°18.547 2°43.97 3.5 38 0.1 101280 31
2009-12-18 09:01:07 51°18.549 2°43.95 1.1 18 0.2 101280 31
2009-12-18 09:01:13 51°18.55 2°43.919 1.2 33 0.2 101280 31
2009-12-18 09:01:18 51°18.552 2°43.893 3.1 39 0.2 101280 29
2009-12-18 09:01:23 51°18.552 2°43.867 4.2 34 0.2 101280 29
2009-12-18 09:01:27 51°18.555 2°43.847 3.7 37 0.2 101280 33
2009-12-18 09:01:33 51°18.555 2°43.815 2.3 41 0.2 101280 33
2009-12-18 09:01:38 51°18.557 2°43.789 3.2 36 0.2 101290 34
2009-12-18 09:01:43 51°18.558 2°43.763 2.7 36 0.2 101290 34
2009-12-18 09:01:47 51°18.559 2°43.741 3.6 34 0.3 101290 33
2009-12-18 09:01:53 51°18.56 2°43.71 3.1 39 0.3 101290 33
2009-12-18 09:01:58 51°18.561 2°43.683 2.9 25 0.2 101280 30
2009-12-18 09:02:03 51°18.563 2°43.658 1.8 34 0.2 101280 30
2009-12-18 09:02:07 51°18.562 2°43.636 3.3 32 0.2 101290 32
2009-12-18 09:02:13 51°18.565 2°43.606 3 42 0.2 101290 32
2009-12-18 09:02:18 51°18.564 2°43.579 4.2 38 0.2 101290 32
2009-12-18 09:02:23 51°18.567 2°43.553 3.6 32 0.2 101290 32
2009-12-18 09:02:27 51°18.567 2°43.532 3.4 35 0.2 101290 32
2009-12-18 09:02:33 51°18.568 2°43.5 3.1 26 0.2 101290 32
2009-12-18 09:02:38 51°18.567 2°43.473 3.7 19 0.3 101280 32
2009-12-18 09:02:43 51°18.571 2°43.448 4.2 32 0.3 101280 32
2009-12-18 09:02:47 51°18.57 2°43.426 4.5 28 0.3 101280 34
2009-12-18 09:02:53 51°18.571 2°43.394 5.6 32 0.3 101280 34
2009-12-18 09:02:58 51°18.573 2°43.367 4.1 34 0.4 101280 32
2009-12-18 09:03:03 51°18.573 2°43.341 4.6 29 0.4 101280 32
2009-12-18 09:03:07 51°18.575 2°43.32 6.3 28 0.4 101280 34
2009-12-18 09:03:13 51°18.576 2°43.288 5.2 33 0.4 101280 34
2009-12-18 09:03:18 51°18.577 2°43.262 6.5 33 0.4 101280 33
2009-12-18 09:03:23 51°18.579 2°43.236 6.4 32 0.4 101280 33
2009-12-18 09:03:27 51°18.579 2°43.215 3.6 31 0.4 101280 33
2009-12-18 09:03:33 51°18.58 2°43.184 8.1 29 0.4 101280 33
2009-12-18 09:03:38 51°18.582 2°43.157 5.3 34 0.4 101270 34
2009-12-18 09:03:43 51°18.582 2°43.131 7.1 33 0.4 101270 34
2009-12-18 09:03:47 51°18.584 2°43.11 5.5 39 0.4 101280 32
2009-12-18 09:03:53 51°18.584 2°43.078 4.9 41 0.4 101280 32